Theta_e
286 286 284 284 283 283 281 280 279 278 278 277 277 277 276 275 275 274 274 274 274 273 273 273 274 274 273 273 273 273 272 271 268 271 273 273 273 273 274 275 276 275 276
285 284 283 283 281 280 279 278 278 277 278 277 277 276 276 275 274 274 274 273 273 273 273 272 272 274 272 272 272 271 271 272 270 269 271 272 272 273 274 273 275 276 275
284 283 282 281 280 279 278 277 278 277 277 276 276 276 275 275 274 274 273 273 273 272 272 272 272 272 272 272 271 270 271 273 271 270 270 272 273 274 273 274 274 274 276
283 282 280 279 279 278 278 277 277 277 276 276 276 275 275 274 274 275 274 273 272 272 273 273 272 272 271 271 272 272 272 271 272 271 271 271 272 274 274 272 272 274 274
282 281 280 279 278 278 278 277 277 276 276 276 275 274 274 274 275 274 274 273 272 271 272 273 272 272 274 274 273 272 272 271 271 272 271 272 272 272 271 273 272 273 274
282 281 280 279 278 278 277 277 276 276 275 275 274 273 273 273 279 278 275 273 273 272 271 271 271 272 272 275 276 277 278 275 272 272 271 270 270 271 272 272 273 271 269
282 280 279 279 278 277 277 276 275 275 274 273 272 272 272 272 278 277 276 273 272 271 271 271 272 273 272 272 274 277 277 277 277 274 269 270 271 272 272 270 270 270 270
282 280 279 278 277 276 275 275 275 274 273 272 272 272 271 271 277 277 276 273 271 271 271 271 271 271 272 273 274 274 273 273 273 273 273 273 273 273 273 272 271 270 270
281 280 279 278 277 275 275 274 274 273 272 272 272 271 271 270 276 276 275 272 271 271 272 272 272 272 275 278 275 268 269 270 274 276 276 276 276 276 274 271 266 265 264
281 280 279 278 276 275 275 275 274 273 272 272 272 271 270 268 274 275 276 271 266 270 271 272 275 274 277 278 273 264 263 269 271 268 268 269 271 270 273 270 269 265 265
282 279 278 278 277 276 276 274 273 272 271 270 269 267 267 267 267 275 276 273 270 269 270 271 273 276 277 278 278 267 267 273 266 265 265 266 267 268 269 270 270 269 266
280 279 278 278 277 276 275 273 271 270 267 264 263 262 265 266 269 273 276 277 276 270 268 271 272 276 277 277 275 274 275 271 260 260 262 263 265 266 268 269 269 270 270
280 280 278 277 276 275 273 269 266 265 265 263 264 263 263 266 265 274 275 277 278 274 271 273 276 278 276 272 272 273 268 261 260 257 261 264 266 267 268 268 269 269 270
278 277 276 275 273 271 272 269 267 264 264 264 264 264 263 264 266 266 267 266 271 272 272 269 271 275 274 270 264 266 264 264 263 263 263 265 265 265 265 266 265 267 266
276 273 272 272 270 269 268 267 267 267 267 265 264 264 262 262 266 269 267 261 262 267 268 259 261 260 262 260 259 261 262 262 261 262 262 262 263 264 264 265 266 265 263
272 270 271 271 269 268 266 262 272 270 273 274 273 266 261 269 272 274 275 276 277 278 269 258 260 262 261 260 258 260 262 261 261 261 261 261 262 262 262 263 265 263 262
273 271 270 269 267 266 265 265 265 266 275 275 276 276 276 271 275 276 277 278 278 278 268 260 261 261 260 261 261 260 260 261 260 260 260 260 261 261 261 262 263 263 262
270 270 269 268 267 266 266 265 265 265 264 262 271 276 277 278 278 278 277 276 270 263 258 260 261 260 259 258 259 259 260 259 259 259 259 258 258 259 260 260 262 261 262
266 266 267 266 265 265 263 261 260 259 259 255 256 265 267 271 272 273 273 263 259 259 260 258 258 258 258 258 258 258 257 257 258 256 256 256 257 258 259 260 261 262 262
265 265 265 264 261 261 261 261 260 259 258 258 258 259 258 258 256 257 257 256 254 254 254 255 257 257 258 258 257 257 255 254 255 254 254 254 256 257 259 259 259 260 261
264 262 263 260 262 262 261 261 261 260 259 258 259 259 265 255 254 252 250 249 251 252 253 254 254 256 256 258 257 256 254 255 256 254 252 253 254 255 257 258 259 260 261
262 261 260 261 259 260 261 260 259 258 257 257 255 256 267 251 248 248 247 248 250 251 253 257 257 255 257 257 257 256 254 254 254 253 252 252 252 254 255 256 258 260 261
259 259 258 258 260 260 259 258 258 258 258 257 256 252 248 248 247 246 246 247 248 250 252 252 255 255 257 257 257 256 255 255 255 252 250 251 250 252 253 254 257 259 260
258 259 260 260 259 259 259 257 258 258 257 254 252 249 249 247 247 248 249 248 248 251 251 251 251 252 254 255 256 255 254 253 253 252 250 250 251 252 252 254 256 259 260
256 257 259 260 259 259 258 257 257 255 253 254 251 249 249 248 248 249 248 247 249 249 250 249 249 251 251 252 254 253 253 256 254 253 248 245 250 250 252 255 256 259 259
259 260 259 259 258 257 257 256 255 254 253 253 253 252 250 250 250 248 247 248 249 250 250 249 250 250 250 251 251 252 256 258 256 255 252 251 252 253 254 256 257 259 259
Wind_Speed
12 12 12 10 10 9 9 9 9 8 8 8 8 8 8 7 6 7 7 6 7 5 4 4 4 2 2 1 1 1 2 3 8 9 8 9 11 12 12 11 12 12 11
11 12 11 11 10 10 10 9 9 9 6 8 8 8 7 6 6 7 7 5 5 5 4 3 2 3 3 2 1 3 3 4 6 16 11 10 12 13 14 15 12 11 11
13 12 11 11 11 10 10 9 9 9 8 7 7 8 7 7 7 6 6 5 4 5 3 2 2 1 1 2 2 3 3 5 6 9 13 10 11 11 13 13 13 13 10
13 13 14 13 12 11 10 10 10 9 9 7 7 7 7 7 6 6 6 5 4 3 1 1 2 1 3 4 4 3 5 6 7 8 10 12 12 12 10 13 14 11 12
14 14 13 11 10 10 10 9 9 8 7 7 7 6 6 6 5 5 6 5 4 3 2 1 1 3 7 6 3 4 5 5 7 7 9 11 11 13 14 13 14 14 12
14 14 12 12 12 11 11 10 9 8 7 6 6 6 6 4 10 10 7 5 4 2 1 2 4 5 7 10 10 12 11 9 8 8 10 12 15 13 13 13 14 14 17
15 14 14 13 13 12 10 10 9 8 7 6 6 6 6 4 10 8 7 4 3 1 2 4 5 4 6 7 12 14 11 13 14 12 10 11 14 14 16 17 14 13 14
17 16 15 14 13 12 11 10 9 6 8 7 6 6 6 5 10 9 8 4 3 3 4 5 7 8 7 9 9 4 4 3 8 7 9 10 13 15 13 13 14 14 12
16 16 15 15 14 12 11 10 7 7 5 5 5 6 6 5 10 9 8 4 4 4 5 7 7 8 11 15 4 3 2 6 9 14 16 23 23 23 18 10 9 11 12
17 15 13 13 13 12 11 10 6 5 6 5 6 6 6 5 10 11 9 4 3 4 7 8 12 9 14 14 5 2 4 9 6 8 9 12 14 14 19 10 8 10 12
15 14 13 13 14 13 11 8 8 7 6 6 5 4 5 5 7 13 12 6 5 5 6 5 6 13 14 14 14 2 5 10 7 7 8 8 9 9 8 8 10 10 11
18 17 15 14 10 9 11 9 8 8 7 5 4 3 3 5 11 12 14 15 14 7 6 5 6 14 15 13 10 15 17 11 4 5 6 7 8 9 9 10 12 12 12
16 16 18 14 12 11 11 10 6 6 6 6 6 5 5 5 5 15 16 17 18 8 3 9 16 15 12 9 12 14 7 3 4 3 6 7 8 10 12 11 11 13 13
15 14 12 14 13 9 7 7 8 8 7 7 6 7 4 3 5 5 4 4 10 7 9 6 9 13 9 7 2 4 3 4 5 6 7 8 8 8 10 9 10 10 11
11 10 11 10 11 9 8 9 10 8 10 9 8 6 5 6 6 10 8 4 5 10 9 1 1 1 2 3 2 3 3 4 5 5 6 7 8 8 9 9 9 10 10
10 9 9 8 8 8 8 3 14 11 17 15 12 8 2 8 8 12 15 17 20 20 4 3 3 3 5 3 2 4 4 5 5 5 6 7 7 8 9 10 8 9 11
12 11 8 8 8 9 8 9 10 6 16 16 17 15 16 12 16 16 17 19 19 17 3 3 3 4 3 3 4 4 5 5 4 5 6 6 7 8 9 9 9 10 11
7 10 9 8 8 8 9 8 6 7 7 2 7 11 15 14 13 13 14 15 6 3 1 2 3 3 2 3 4 5 5 5 5 5 6 6 6 7 8 9 9 10 11
8 7 7 7 6 6 5 5 5 5 5 3 0 3 2 5 8 10 12 1 1 2 3 3 3 3 3 4 5 5 5 5 5 5 5 6 6 6 8 8 9 13 13
5 7 7 6 6 5 6 6 5 5 5 5 4 3 2 3 1 1 2 2 2 3 3 3 3 4 4 5 5 5 5 4 5 4 5 4 6 6 8 9 9 10 10
5 5 8 5 6 6 6 7 6 6 6 5 4 4 8 4 4 3 3 3 3 3 3 3 3 3 4 5 5 4 5 6 5 5 4 5 5 7 8 8 9 9 9
5 5 5 6 5 6 6 6 5 5 5 5 3 3 9 3 3 3 3 4 4 4 3 4 4 3 5 5 5 5 5 6 6 5 6 6 5 6 7 8 9 9 9
5 5 5 3 5 6 5 5 5 5 5 4 4 3 2 2 3 3 3 4 3 3 4 3 4 4 4 5 5 5 6 7 6 5 5 6 5 6 6 8 9 10 9
4 4 5 5 4 5 6 6 5 6 5 4 4 3 3 3 4 4 4 3 3 4 4 5 4 5 6 6 6 5 6 6 6 6 7 6 7 7 6 8 8 12 9
5 4 4 5 5 5 5 4 4 4 4 4 4 3 3 3 2 4 4 3 4 4 5 4 4 6 9 10 10 9 9 13 11 9 4 5 9 9 9 8 10 10 10
4 4 4 4 3 4 4 4 3 3 4 3 3 3 3 2 4 4 3 3 5 5 5 4 6 10 10 9 10 11 12 13 11 11 8 7 8 8 7 9 10 9 10
Wind_Direction
147 145 137 137 134 130 131 131 131 127 129 125 123 117 113 110 107 105 95 88 85 84 63 65 61 46 4 36 343 334 312 295 288 309 320 311 303 309 308 304 301 302 305
147 143 141 136 136 137 138 136 134 131 126 125 119 116 117 117 107 98 95 92 95 89 72 80 79 28 16 345 319 292 285 282 288 298 305 311 316 312 306 306 310 307 301
144 141 140 142 144 142 140 137 133 131 130 126 128 130 130 122 113 105 105 110 104 94 102 63 17 312 292 298 300 297 272 282 278 287 301 311 306 308 307 304 305 302 295
149 150 151 154 153 151 148 147 144 142 136 137 136 137 134 129 128 125 121 118 109 109 110 217 248 297 330 301 275 265 291 284 285 290 296 302 305 310 300 305 308 305 304
154 156 160 148 143 145 147 146 140 138 141 143 141 132 132 137 142 141 139 125 134 172 191 307 326 302 289 284 292 267 272 279 284 290 298 302 308 319 315 313 304 305 303
161 161 155 151 153 156 151 152 146 141 142 145 148 150 151 147 157 153 140 149 167 164 24 306 283 275 264 293 302 309 308 309 313 304 313 312 310 311 310 313 319 323 314
163 158 159 160 161 164 155 157 145 156 149 159 153 156 156 158 171 163 161 160 153 152 250 268 280 268 267 267 279 290 298 303 317 314 305 302 306 317 315 312 314 309 304
169 167 165 163 164 163 160 154 149 159 174 168 168 170 159 184 181 176 185 156 174 223 243 256 257 266 267 276 273 226 263 284 296 294 291 304 305 307 309 315 314 309 298
173 176 174 171 165 165 169 157 154 165 177 174 169 170 174 185 185 193 189 169 203 241 257 256 254 260 277 291 294 274 263 292 302 306 314 312 312 315 316 320 314 310 305
181 177 172 165 160 165 168 159 167 180 178 172 172 180 180 183 208 209 202 167 194 239 251 250 260 256 272 289 305 148 324 307 318 321 318 316 311 303 313 312 305 301 303
159 150 160 175 175 179 170 158 170 173 157 173 174 171 189 191 221 219 217 193 209 230 237 245 240 266 282 286 313 102 276 301 348 330 311 303 301 300 305 307 305 299 296
161 160 174 179 174 170 182 158 159 163 162 173 167 208 222 223 219 230 227 227 226 216 227 234 240 273 280 298 322 306 305 341 332 305 300 300 303 305 307 307 302 296 287
167 178 175 175 175 175 173 162 147 161 170 189 195 210 226 218 219 235 229 235 242 242 212 255 263 278 296 317 307 305 349 326 295 290 292 296 299 303 303 303 301 296 290
172 175 174 176 170 169 174 176 162 180 185 191 196 216 214 210 217 214 244 275 285 264 279 283 280 278 269 283 310 301 285 275 288 291 291 296 300 303 304 307 309 314 312
169 168 172 174 172 171 188 186 184 201 194 186 204 190 175 222 226 220 216 232 236 244 249 146 202 264 276 266 258 251 269 279 283 284 292 296 298 303 304 308 310 318 314
165 169 176 173 173 177 181 182 213 206 210 214 210 188 220 227 232 230 233 244 245 250 225 179 198 217 243 247 254 274 276 279 271 286 291 290 298 303 303 309 312 319 317
181 179 173 172 173 177 178 184 196 242 217 221 227 227 213 214 226 233 249 254 262 266 251 198 215 222 240 255 252 248 267 270 274 281 283 287 296 298 304 306 312 317 316
176 174 176 180 180 182 186 191 182 179 192 233 244 224 234 247 247 259 272 283 294 346 204 221 241 241 244 252 258 259 263 273 278 279 285 289 292 295 301 304 308 311 314
166 173 171 169 174 173 158 139 145 157 171 170 271 258 262 253 272 277 284 43 200 265 277 248 230 237 244 248 252 259 255 259 269 272 279 283 289 294 293 297 301 305 312
180 161 164 163 152 155 160 166 164 169 171 182 187 198 132 95 92 239 229 230 239 240 238 244 242 232 245 253 253 254 261 257 264 255 262 265 283 282 291 295 298 302 308
166 156 160 139 164 168 168 178 176 172 177 175 193 188 202 173 209 203 238 255 239 252 252 242 241 238 247 259 247 248 251 262 263 260 250 267 271 285 290 289 292 295 300
153 158 156 167 148 163 172 162 159 156 157 166 187 221 230 108 146 183 217 236 237 234 228 257 269 231 246 253 254 251 253 257 260 253 257 261 262 276 283 286 292 296 298
137 146 152 147 162 147 145 145 148 154 166 173 169 185 195 215 228 232 237 242 241 245 246 224 244 257 254 250 252 242 254 259 254 235 244 264 262 269 274 282 290 293 294
118 142 156 151 150 150 154 159 154 160 159 169 178 193 205 213 221 239 244 244 253 258 245 236 228 242 263 263 258 246 241 251 253 248 228 247 261 270 270 274 282 287 289
123 119 136 152 155 151 145 155 160 159 167 180 184 194 214 218 232 244 237 233 249 251 257 246 240 244 253 259 262 261 260 265 258 247 217 216 246 256 260 267 275 280 285
111 124 124 125 128 132 154 169 171 174 177 175 199 214 214 227 244 247 243 243 253 248 247 245 247 252 262 267 263 264 265 266 259 241 225 223 235 246 250 259 270 284 282